CAPE
nan nan nan nan nan nan nan nan nan nan nan nan nan nan nan nan nan nan nan nan nan nan nan nan nan nan nan nan nan nan nan nan nan nan nan nan nan nan nan nan nan nan nan nan nan nan nan nan nan nan nan nan nan nan nan nan nan nan 0 0 0 0 1 1 1 2 2 3 3 3 2 1 1 1 1 2 2 2 1 2 2 3 5 11 11 16
nan nan nan nan nan nan nan nan nan nan nan nan nan nan nan nan nan nan nan nan nan nan nan nan nan nan nan nan nan nan nan nan nan nan nan nan nan nan nan nan nan nan nan nan nan nan nan nan nan nan nan nan nan nan nan nan nan nan nan 0 0 0 1 2 2 2 3 3 2 2 1 1 1 1 2 2 3 3 3 4 4 5 8 14 14 18
nan nan nan nan nan nan nan nan nan nan nan nan nan nan nan nan nan nan nan nan nan nan nan nan nan nan nan nan nan nan nan nan nan nan nan nan nan nan nan nan nan nan nan nan nan nan nan nan nan nan nan nan nan nan nan nan nan nan nan 0 0 0 1 1 1 2 2 2 2 2 1 2 3 3 4 4 5 5 5 7 7 9 12 17 17 20
nan nan nan nan nan nan nan nan nan nan nan nan nan nan nan nan nan nan nan nan nan nan nan nan nan nan nan nan nan nan nan nan nan nan nan nan nan nan nan nan nan nan nan nan nan nan nan nan nan nan nan nan nan nan nan nan nan nan nan nan nan nan 0 0 0 0 1 1 1 1 2 4 6 6 6 7 8 8 8 11 11 12 15 20 20 26
nan nan nan nan nan nan nan nan nan nan nan nan nan nan nan nan nan nan nan nan nan nan nan nan nan nan nan nan nan nan nan nan nan nan nan nan nan nan nan nan nan nan nan nan nan nan nan nan nan nan nan nan nan nan nan nan nan nan nan nan nan nan nan nan nan nan nan 0 1 1 2 4 5 5 7 7 8 8 9 10 10 15 18 22 22 25
nan nan nan nan nan nan nan nan nan nan nan nan nan nan nan nan nan nan nan nan nan nan nan nan nan nan nan nan nan nan nan nan nan nan nan nan nan nan nan nan nan nan nan nan nan nan nan nan nan nan nan nan nan nan nan nan nan nan nan nan nan nan nan nan nan nan nan nan 0 0 1 2 2 2 4 6 7 7 8 9 9 13 17 20 20 24
nan nan nan nan nan nan nan nan nan nan nan nan nan nan nan nan nan nan nan nan nan nan nan nan nan nan nan nan nan nan nan nan nan nan nan nan nan nan nan nan nan nan nan nan nan nan nan nan nan nan nan nan nan nan nan nan nan nan nan nan nan nan nan nan nan nan nan nan nan nan 0 0 0 0 1 2 3 3 6 7 7 10 15 19 19 23
nan nan nan nan nan nan nan nan nan nan nan nan nan nan nan nan nan nan nan nan nan nan nan nan nan nan nan nan nan nan nan nan nan nan nan nan nan nan nan nan nan nan nan nan nan nan nan nan nan nan nan nan nan nan nan nan nan nan nan nan nan nan nan nan nan nan nan nan nan nan 0 1 1 1 1 3 5 5 9 12 12 15 15 17 17 21
nan nan nan nan nan nan nan nan nan nan nan nan nan nan nan nan nan nan nan nan nan nan nan nan nan nan nan nan nan nan nan nan nan nan nan nan nan nan nan nan nan nan nan nan nan nan nan nan nan nan nan nan nan nan nan nan nan nan nan nan nan nan nan nan nan nan nan nan 0 0 0 1 1 1 2 2 4 4 7 12 12 17 20 19 19 22
nan nan nan nan nan nan nan nan nan nan nan nan nan nan nan nan nan nan nan nan nan nan nan nan nan nan nan nan nan nan nan nan nan nan nan nan nan nan nan nan nan nan nan nan nan nan nan nan nan nan nan nan nan nan nan nan nan nan nan nan nan nan nan nan nan nan nan nan 0 0 0 1 1 1 2 2 3 3 5 9 9 14 17 20 20 23
nan nan nan nan nan nan nan nan nan nan nan nan nan nan nan nan nan nan nan nan nan nan nan nan nan nan nan nan nan nan nan nan nan nan nan nan nan nan nan nan nan nan nan nan nan nan nan nan nan nan nan nan nan nan nan nan nan nan nan nan nan nan nan nan nan nan nan nan 0 0 1 1 1 1 1 2 3 3 4 7 7 9 14 19 19 22
nan nan nan nan nan nan nan nan nan nan nan nan nan nan nan nan nan nan nan nan nan nan nan nan nan nan nan nan nan nan nan nan nan nan nan nan nan nan nan nan nan nan nan nan nan nan nan nan nan nan nan nan nan nan nan nan nan nan nan nan nan nan nan nan nan nan nan 0 1 1 2 2 2 2 2 2 3 3 4 6 6 8 10 14 14 20
nan nan nan nan nan nan nan nan nan nan nan nan nan nan nan nan nan nan nan nan nan nan nan nan nan nan nan nan nan nan nan nan nan nan nan nan nan nan nan nan nan nan nan nan nan nan nan nan nan nan nan nan nan nan nan nan nan nan nan nan nan nan nan nan nan nan 0 1 2 2 3 3 4 4 3 4 5 5 5 7 7 10 12 14 14 18
nan nan nan nan nan nan nan nan nan nan nan nan nan nan nan nan nan nan nan nan nan nan nan nan nan nan nan nan nan nan nan nan nan nan nan nan nan nan nan nan nan nan nan nan nan nan nan nan nan nan nan nan nan nan nan nan nan nan nan nan nan nan nan nan nan 0 1 2 4 4 5 5 5 5 5 5 6 6 8 9 9 11 13 15 15 18
nan nan nan nan nan nan nan nan nan nan nan nan nan nan nan nan nan nan nan nan nan nan nan nan nan nan nan nan nan nan nan nan nan nan nan nan nan nan nan nan nan nan nan nan nan nan nan nan nan nan nan nan nan nan nan nan nan nan nan nan nan nan nan nan nan 1 3 4 5 5 7 7 6 6 6 7 7 7 9 10 10 12 14 15 15 19
nan nan nan nan nan nan nan nan nan nan nan nan nan nan nan nan nan nan nan nan nan nan nan nan nan nan nan nan nan nan nan nan nan nan nan nan nan nan nan nan nan nan nan nan nan nan nan nan nan nan nan nan nan nan nan nan nan nan nan nan nan nan nan nan nan 1 3 4 6 6 7 8 8 8 8 7 7 7 7 9 9 12 14 16 16 17
nan nan nan nan nan nan nan nan nan nan nan nan nan nan nan nan nan nan nan nan nan nan nan nan nan nan nan nan nan nan nan nan nan nan nan nan nan nan nan nan nan nan nan nan nan nan nan nan nan nan nan nan nan nan nan nan nan nan nan nan nan nan nan nan nan 1 2 4 6 6 7 8 7 7 7 5 5 5 6 9 9 12 14 15 15 15
nan nan nan nan nan nan nan nan nan nan nan nan nan nan nan nan nan nan nan nan nan nan nan nan nan nan nan nan nan nan nan nan nan nan nan nan nan nan nan nan nan nan nan nan nan nan nan nan nan nan nan nan nan nan nan nan nan nan nan nan nan nan nan nan nan 0 1 3 4 4 6 7 6 6 5 5 6 6 7 8 8 11 14 13 13 14
nan nan nan nan nan nan nan nan nan nan nan nan nan nan nan nan nan nan nan nan nan nan nan nan nan nan nan nan nan nan 0 nan nan nan nan nan nan nan nan nan nan nan nan nan nan nan nan nan nan nan nan 0 nan nan nan nan nan nan nan nan nan nan nan nan nan nan 0 1 3 3 4 5 5 5 4 4 6 6 7 9 9 12 12 12 12 13
nan nan nan nan nan nan nan nan nan nan nan nan nan nan nan nan nan nan nan nan nan nan nan nan nan nan nan nan nan nan nan nan 0 0 nan nan nan nan nan nan nan nan nan nan nan nan nan nan nan 0 0 2 2 2 0 nan nan nan nan nan nan nan nan nan nan nan 0 0 1 1 2 3 4 4 4 4 5 5 7 9 9 12 11 11 11 12
nan nan nan nan nan nan nan nan nan nan nan nan nan nan nan nan nan nan nan nan nan nan nan nan nan nan nan nan nan nan nan nan nan nan nan nan nan nan nan nan nan nan nan nan nan nan nan nan nan nan 0 1 3 3 2 nan nan nan nan nan nan nan nan nan nan nan nan 0 0 0 1 2 4 4 3 4 4 4 5 8 8 10 12 11 11 11
nan nan nan nan nan nan nan nan nan nan nan nan nan nan nan nan nan nan nan nan nan nan nan nan nan nan 0 0 nan nan 3 nan nan nan nan nan nan nan nan nan nan nan nan nan nan nan nan nan nan nan nan nan 0 0 0 nan nan nan nan nan nan nan nan nan nan nan nan nan 0 0 1 3 4 4 3 2 2 2 3 4 4 7 9 10 10 10
nan nan nan nan nan nan nan nan nan nan nan nan nan nan nan nan nan nan 0 0 0 1 3 3 3 4 4 3 2 2 3 1 1 1 0 nan nan nan nan nan nan nan nan nan nan nan nan nan nan nan nan nan nan nan nan nan nan nan nan nan nan nan nan nan nan nan nan nan 1 1 3 6 5 5 3 1 1 1 3 3 3 5 4 5 5 6
nan nan nan nan nan nan nan nan nan nan nan 0 1 1 4 4 4 4 7 10 10 12 11 9 9 6 6 2 0 0 0 0 2 2 0 nan nan nan nan nan nan nan nan nan nan nan nan nan nan nan nan nan nan nan 0 0 0 nan nan nan nan nan nan nan nan nan nan 0 3 3 6 7 6 6 4 2 4 4 4 6 6 6 6 4 4 1
nan nan nan nan nan 1 nan 0 nan nan 1 5 8 8 14 16 17 17 20 21 21 19 14 10 10 5 1 nan nan nan nan nan nan nan nan nan nan nan nan nan nan nan nan nan nan nan nan nan nan nan nan nan 1 1 1 2 2 1 nan nan nan nan nan nan nan nan nan 0 3 3 5 8 8 8 7 10 9 9 9 7 7 10 9 10 10 6
0 0 2 2 2 5 5 6 5 5 8 10 8 8 10 15 18 18 20 17 17 11 6 3 3 0 nan nan nan nan nan nan nan nan nan nan nan nan nan nan nan nan nan nan nan nan nan nan nan nan nan nan 0 0 0 1 1 1 0 nan nan nan nan nan nan nan nan nan nan nan nan 1 3 3 10 9 10 10 14 13 13 16 14 12 12 12
nan nan nan 0 0 1 4 5 8 8 9 11 8 8 7 10 6 6 4 3 3 2 0 nan nan nan nan nan nan nan nan nan nan nan nan nan nan nan nan nan nan nan nan nan nan nan nan nan nan nan nan nan nan nan nan 0 0 1 2 1 1 nan nan nan nan nan nan nan nan nan nan nan nan nan 2 5 8 8 12 11 11 13 15 20 20 23
nan nan nan nan nan nan nan 0 2 2 3 5 6 6 6 7 2 2 0 0 0 nan nan nan nan nan nan nan nan nan nan nan nan nan nan nan nan nan nan nan nan nan nan nan nan nan nan nan nan nan nan nan nan nan nan 1 1 3 6 7 7 4 1 0 0 nan nan nan nan nan nan nan nan nan nan 2 2 2 5 6 6 7 10 17 17 22
nan nan nan nan nan nan nan nan 0 0 0 2 2 2 4 3 1 1 nan nan nan nan nan 0 0 nan nan nan nan nan nan nan nan nan nan nan nan nan nan nan nan nan nan nan nan nan nan nan nan nan nan nan nan nan nan 1 1 3 5 10 10 11 7 1 1 nan nan nan nan nan nan nan nan nan nan nan nan nan 1 1 1 4 6 16 16 22
nan nan nan nan nan nan nan nan 0 0 0 0 0 0 1 1 0 0 nan 0 0 0 nan nan nan nan nan nan nan nan nan nan nan nan nan nan nan nan nan nan nan nan nan nan nan nan nan nan nan nan nan nan nan nan nan 0 0 1 2 8 8 7 5 1 1 nan nan nan nan nan nan nan nan nan nan nan nan nan 0 nan nan 1 11 21 21 22
0 1 1 1 1 0 2 5 2 2 1 0 0 0 0 1 0 0 1 1 1 0 0 nan nan nan nan nan nan nan nan nan nan nan nan nan nan nan nan nan nan nan 2 nan nan nan nan nan nan nan nan nan nan nan 0 0 0 1 3 5 5 5 3 nan nan nan nan nan nan nan nan nan nan nan nan nan 0 0 1 0 0 4 12 23 23 21
3 2 1 0 0 0 0 0 0 0 0 0 0 0 0 0 0 0 0 0 0 0 nan nan nan nan nan nan nan nan nan nan nan nan nan nan 0 0 2 0 0 2 3 7 7 9 2 1 1 0 0 0 3 3 6 10 10 12 9 5 5 3 4 3 3 2 2 4 4 4 2 2 2 2 1 0 1 1 0 0 0 5 9 13 13 15
5 4 4 3 3 1 1 1 1 1 1 1 0 0 0 0 0 0 0 0 0 1 0 0 0 nan nan nan nan nan nan nan 0 0 1 1 3 3 6 3 3 3 6 8 8 12 4 5 5 6 7 7 5 5 10 10 10 8 5 2 2 2 5 5 5 3 5 7 7 7 6 2 1 1 0 nan nan nan nan 0 0 3 16 11 11 14
9 9 8 6 6 4 3 3 2 2 1 1 0 0 0 0 0 0 0 1 1 2 2 1 1 1 1 1 0 0 nan nan 1 1 4 3 4 4 6 6 6 4 8 8 8 13 10 12 12 14 11 10 7 7 5 4 4 5 6 6 6 4 6 7 7 6 7 8 8 8 6 3 3 3 0 nan nan nan nan nan nan 0 6 13 13 10
12 11 9 6 6 4 4 2 1 1 0 nan nan nan nan 0 0 0 0 1 1 2 3 5 5 3 3 3 3 3 1 nan 1 1 5 6 8 8 6 6 6 8 11 8 8 13 13 14 14 11 8 5 4 4 3 3 3 4 6 10 10 7 7 10 10 10 11 8 7 7 7 4 2 2 1 nan nan nan nan nan nan nan 0 7 7 8
13 10 6 4 4 2 0 0 nan nan nan nan nan nan nan 0 0 0 1 2 2 2 4 4 4 5 4 4 2 2 2 0 2 2 5 7 7 7 6 6 6 8 9 8 8 9 8 8 8 10 11 7 4 4 3 4 4 3 5 8 8 9 8 12 12 14 13 11 12 12 8 5 4 4 1 0 nan nan nan nan nan nan nan 0 0 3
6 4 2 1 1 0 nan nan nan nan nan nan nan nan 0 0 1 1 2 8 8 8 4 5 5 5 7 6 4 4 4 3 5 5 6 10 6 6 6 6 6 9 5 6 6 7 7 7 7 7 7 6 3 3 3 4 4 3 2 8 8 8 8 10 10 14 14 16 16 16 14 9 6 6 3 3 1 1 nan nan nan nan nan nan nan 1
3 2 1 1 1 0 0 0 0 0 0 nan 0 0 0 1 4 4 3 6 6 13 7 5 5 4 8 7 7 7 5 6 7 7 11 13 11 11 8 8 8 9 9 7 7 8 8 8 8 7 5 5 6 6 5 5 5 5 6 8 8 9 8 9 9 10 12 19 24 24 21 13 6 6 3 3 2 2 nan nan nan nan nan nan nan 2
3 2 2 1 1 1 0 0 0 0 0 0 1 1 2 4 5 5 5 4 4 7 7 6 6 4 6 11 10 10 7 7 12 12 11 3 5 5 10 9 9 9 11 11 11 11 10 8 8 9 8 8 7 7 5 7 7 7 9 10 10 10 9 8 8 7 14 24 29 29 23 17 11 11 3 2 3 3 1 0 0 0 1 1 1 4
3 3 3 3 3 2 1 1 0 0 1 2 4 4 4 4 4 4 5 5 5 5 5 5 5 4 5 6 7 7 9 16 18 18 13 0 3 3 9 8 8 9 9 8 8 10 9 12 12 16 16 12 9 9 6 8 8 12 17 11 11 8 14 8 8 6 13 23 37 37 35 25 17 17 10 7 4 4 1 nan nan nan 2 1 1 1
4 4 3 2 2 1 1 1 2 2 2 2 3 3 4 4 4 4 4 5 5 5 5 6 6 6 6 8 8 8 10 7 13 13 8 nan nan nan 6 8 8 6 7 7 7 7 14 10 10 15 15 17 16 16 15 10 10 15 21 15 15 12 10 9 9 11 14 32 67 67 66 34 20 20 16 8 3 3 2 1 1 2 1 0 0 0
4 3 2 2 2 1 1 4 5 5 5 5 4 4 4 3 4 4 5 5 5 5 4 6 6 8 9 9 10 10 8 8 2 2 nan nan nan nan 3 5 5 4 7 11 11 14 16 16 16 13 11 16 13 13 10 10 10 13 10 8 8 12 15 19 19 18 22 49 84 84 76 39 25 25 18 10 5 5 6 3 3 4 1 nan nan nan
4 3 4 3 3 3 4 6 5 5 4 5 5 5 5 4 5 5 6 7 7 7 5 7 7 12 12 8 7 7 6 7 11 11 6 nan nan nan 8 16 16 19 14 11 11 12 17 16 16 18 17 18 16 16 13 14 14 12 10 15 15 18 18 26 26 31 36 59 77 77 66 48 24 24 13 5 3 3 3 6 6 6 4 0 0 nan
6 7 5 5 5 4 4 5 4 4 5 6 6 6 6 6 8 8 8 9 9 13 12 14 14 16 15 17 8 8 6 4 6 6 9 12 5 5 15 23 23 22 14 13 13 10 14 15 15 16 15 16 17 17 16 15 15 12 15 21 21 26 28 38 38 53 62 67 61 61 59 45 19 19 2 0 nan nan 3 4 4 3 5 2 2 1
12 9 9 7 7 6 7 6 6 6 7 6 7 7 7 9 12 12 11 12 12 11 16 17 17 15 13 13 9 9 6 3 4 4 4 9 13 13 16 20 20 18 13 10 10 10 11 14 14 15 17 19 23 23 21 18 18 19 28 27 27 31 34 52 52 70 79 59 42 42 51 36 2 2 0 0 2 2 3 2 2 3 4 3 3 2
7 7 10 9 9 12 10 8 7 7 7 8 10 10 8 12 10 10 13 13 13 13 12 14 14 12 15 14 9 9 6 5 3 3 3 5 9 9 15 16 16 13 9 6 6 7 10 14 14 14 17 19 26 26 38 18 18 20 28 34 34 33 44 52 52 55 49 32 23 23 27 26 5 5 0 1 1 1 2 3 3 3 5 4 4 2
12 9 9 9 9 8 8 9 9 9 11 11 11 11 9 10 12 12 14 14 14 13 12 13 13 10 12 12 9 9 7 4 4 4 3 4 7 7 7 6 6 6 4 2 2 5 6 4 4 6 5 5 14 14 17 14 14 12 14 19 19 28 39 35 35 29 25 25 21 21 24 21 5 5 3 2 5 5 5 4 4 6 8 5 5 2
14 12 10 11 11 11 9 9 9 9 12 13 11 11 8 8 10 10 8 10 10 14 13 15 15 10 12 10 10 10 10 7 7 7 6 6 7 7 5 3 3 4 5 6 6 5 2 nan nan 0 2 1 5 5 14 13 13 6 9 13 13 18 23 21 21 18 16 21 18 18 21 6 1 1 2 2 2 2 4 4 4 5 5 5 5 2
10 10 11 11 11 9 7 6 8 8 10 9 8 8 8 9 13 13 10 10 10 14 16 17 17 14 12 9 7 7 9 10 9 9 5 4 5 5 5 9 9 14 17 19 19 18 14 11 11 6 0 1 3 3 10 8 8 5 5 7 7 10 17 18 18 22 15 8 nan nan nan 0 1 1 1 1 3 3 3 2 2 2 2 3 3 2
6 7 7 7 7 7 6 6 9 9 8 8 8 8 9 11 8 8 10 13 13 15 15 14 14 15 15 13 9 9 5 6 5 5 4 4 4 4 5 8 8 9 10 19 19 19 25 22 22 24 21 13 6 6 6 7 7 6 7 8 8 12 14 17 17 20 16 11 4 4 nan 1 1 1 1 1 1 1 1 1 1 0 0 0 0 0
5 5 6 6 6 7 7 8 12 12 13 13 12 12 13 13 13 13 14 15 15 16 15 13 13 13 14 9 5 5 5 5 4 4 3 3 3 3 5 6 6 7 5 8 8 9 5 5 5 11 20 18 9 9 1 3 3 10 16 20 20 18 15 15 15 18 15 10 8 8 nan 1 0 0 nan 0 1 1 0 0 0 0 nan nan nan nan
CIN
nan nan nan nan nan nan nan nan nan nan nan nan nan nan nan nan nan nan nan nan nan nan nan nan nan nan nan nan nan nan nan nan nan nan nan nan nan nan nan nan nan nan nan nan nan nan nan nan nan nan nan nan nan nan nan nan nan nan -0 -0 -0 -0 -0 -0 -0 -0 -0 -0 -0 -0 -0 -0 -1 -1 -0 -0 -0 -0 -0 -0 -0 -0 -0 -0 -0 -0
nan nan nan nan nan nan nan nan nan nan nan nan nan nan nan nan nan nan nan nan nan nan nan nan nan nan nan nan nan nan nan nan nan nan nan nan nan nan nan nan nan nan nan nan nan nan nan nan nan nan nan nan nan nan nan nan nan nan nan -0 -0 -0 -0 -0 -0 -0 -0 -0 -0 -0 -0 -0 -0 -0 -0 -0 -0 -0 -0 -0 -0 -0 -0 -0 -0 -0
nan nan nan nan nan nan nan nan nan nan nan nan nan nan nan nan nan nan nan nan nan nan nan nan nan nan nan nan nan nan nan nan nan nan nan nan nan nan nan nan nan nan nan nan nan nan nan nan nan nan nan nan nan nan nan nan nan nan nan -0 -0 -0 -0 -0 -0 -0 -0 -0 -0 -0 -0 -0 -0 -0 -0 -0 -0 -0 -0 -0 -0 -0 -0 -0 -0 -0
nan nan nan nan nan nan nan nan nan nan nan nan nan nan nan nan nan nan nan nan nan nan nan nan nan nan nan nan nan nan nan nan nan nan nan nan nan nan nan nan nan nan nan nan nan nan nan nan nan nan nan nan nan nan nan nan nan nan nan nan nan nan -0 -0 -0 -0 -0 -0 -0 -0 -0 -0 -0 -0 -0 -0 -0 -0 -0 -0 -0 -0 -0 -0 -0 -0
nan nan nan nan nan nan nan nan nan nan nan nan nan nan nan nan nan nan nan nan nan nan nan nan nan nan nan nan nan nan nan nan nan nan nan nan nan nan nan nan nan nan nan nan nan nan nan nan nan nan nan nan nan nan nan nan nan nan nan nan nan nan nan nan nan nan nan -0 -0 -0 -0 -0 -0 -0 -0 -0 -0 -0 -0 -0 -0 -0 -0 -0 -0 -0
nan nan nan nan nan nan nan nan nan nan nan nan nan nan nan nan nan nan nan nan nan nan nan nan nan nan nan nan nan nan nan nan nan nan nan nan nan nan nan nan nan nan nan nan nan nan nan nan nan nan nan nan nan nan nan nan nan nan nan nan nan nan nan nan nan nan nan nan -0 -0 -0 -0 -0 -0 -0 -0 -0 -0 -0 -0 -0 -0 -0 -0 -0 -0
nan nan nan nan nan nan nan nan nan nan nan nan nan nan nan nan nan nan nan nan nan nan nan nan nan nan nan nan nan nan nan nan nan nan nan nan nan nan nan nan nan nan nan nan nan nan nan nan nan nan nan nan nan nan nan nan nan nan nan nan nan nan nan nan nan nan nan nan nan nan -0 -0 -0 -0 -0 -0 -0 -0 -0 -0 -0 -0 -0 -0 -0 -0
nan nan nan nan nan nan nan nan nan nan nan nan nan nan nan nan nan nan nan nan nan nan nan nan nan nan nan nan nan nan nan nan nan nan nan nan nan nan nan nan nan nan nan nan nan nan nan nan nan nan nan nan nan nan nan nan nan nan nan nan nan nan nan nan nan nan nan nan nan nan -0 -0 -0 -0 -0 -0 -0 -0 -0 -0 -0 -0 -0 -0 -0 -0
nan nan nan nan nan nan nan nan nan nan nan nan nan nan nan nan nan nan nan nan nan nan nan nan nan nan nan nan nan nan nan nan nan nan nan nan nan nan nan nan nan nan nan nan nan nan nan nan nan nan nan nan nan nan nan nan nan nan nan nan nan nan nan nan nan nan nan nan -0 -0 -0 -0 -0 -0 -0 -0 -0 -0 -0 -0 -0 -0 -0 -0 -0 -0
nan nan nan nan nan nan nan nan nan nan nan nan nan nan nan nan nan nan nan nan nan nan nan nan nan nan nan nan nan nan nan nan nan nan nan nan nan nan nan nan nan nan nan nan nan nan nan nan nan nan nan nan nan nan nan nan nan nan nan nan nan nan nan nan nan nan nan nan -0 -0 -0 -0 -0 -0 -0 -0 -0 -0 -0 -0 -0 -0 -0 -0 -0 -0
nan nan nan nan nan nan nan nan nan nan nan nan nan nan nan nan nan nan nan nan nan nan nan nan nan nan nan nan nan nan nan nan nan nan nan nan nan nan nan nan nan nan nan nan nan nan nan nan nan nan nan nan nan nan nan nan nan nan nan nan nan nan nan nan nan nan nan nan -0 -0 -0 -0 -0 -0 -0 -0 -0 -0 -0 -0 -0 -0 -0 -0 -0 -0
nan nan nan nan nan nan nan nan nan nan nan nan nan nan nan nan nan nan nan nan nan nan nan nan nan nan nan nan nan nan nan nan nan nan nan nan nan nan nan nan nan nan nan nan nan nan nan nan nan nan nan nan nan nan nan nan nan nan nan nan nan nan nan nan nan nan nan -0 -0 -0 -0 -0 -0 -0 -0 -0 -0 -0 -0 -0 -0 -0 -0 -0 -0 -0
nan nan nan nan nan nan nan nan nan nan nan nan nan nan nan nan nan nan nan nan nan nan nan nan nan nan nan nan nan nan nan nan nan nan nan nan nan nan nan nan nan nan nan nan nan nan nan nan nan nan nan nan nan nan nan nan nan nan nan nan nan nan nan nan nan nan -0 -0 -0 -0 -0 -0 -0 -0 -0 -0 -0 -0 -0 -0 -0 -0 -0 -0 -0 -0
nan nan nan nan nan nan nan nan nan nan nan nan nan nan nan nan nan nan nan nan nan nan nan nan nan nan nan nan nan nan nan nan nan nan nan nan nan nan nan nan nan nan nan nan nan nan nan nan nan nan nan nan nan nan nan nan nan nan nan nan nan nan nan nan nan -1 -0 -0 -0 -0 -0 -0 -0 -0 -0 -0 -0 -0 -0 -0 -0 -0 -0 -0 -0 -0
nan nan nan nan nan nan nan nan nan nan nan nan nan nan nan nan nan nan nan nan nan nan nan nan nan nan nan nan nan nan nan nan nan nan nan nan nan nan nan nan nan nan nan nan nan nan nan nan nan nan nan nan nan nan nan nan nan nan nan nan nan nan nan nan nan -1 -0 -0 -0 -0 -0 -0 -0 -0 -0 -0 -0 -0 -0 -0 -0 -0 -0 -0 -0 -0
nan nan nan nan nan nan nan nan nan nan nan nan nan nan nan nan nan nan nan nan nan nan nan nan nan nan nan nan nan nan nan nan nan nan nan nan nan nan nan nan nan nan nan nan nan nan nan nan nan nan nan nan nan nan nan nan nan nan nan nan nan nan nan nan nan -0 -0 -0 -0 -0 -0 -0 -0 -0 -0 -0 -0 -0 -0 -0 -0 -0 -0 -0 -0 -0
nan nan nan nan nan nan nan nan nan nan nan nan nan nan nan nan nan nan nan nan nan nan nan nan nan nan nan nan nan nan nan nan nan nan nan nan nan nan nan nan nan nan nan nan nan nan nan nan nan nan nan nan nan nan nan nan nan nan nan nan nan nan nan nan nan -0 -0 -0 -0 -0 -0 -0 -0 -0 -0 -0 -0 -0 -0 -0 -0 -0 -0 -0 -0 -0
nan nan nan nan nan nan nan nan nan nan nan nan nan nan nan nan nan nan nan nan nan nan nan nan nan nan nan nan nan nan nan nan nan nan nan nan nan nan nan nan nan nan nan nan nan nan nan nan nan nan nan nan nan nan nan nan nan nan nan nan nan nan nan nan nan -0 -0 -0 -0 -0 -0 -0 -0 -0 -0 -0 -0 -0 -0 -0 -0 -0 -0 -0 -0 -0
nan nan nan nan nan nan nan nan nan nan nan nan nan nan nan nan nan nan nan nan nan nan nan nan nan nan nan nan nan nan -0 nan nan nan nan nan nan nan nan nan nan nan nan nan nan nan nan nan nan nan nan -12 nan nan nan nan nan nan nan nan nan nan nan nan nan nan -0 -0 -0 -0 -0 -0 -0 -0 -1 -1 -0 -0 -0 -0 -0 -0 -0 -0 -0 -0
nan nan nan nan nan nan nan nan nan nan nan nan nan nan nan nan nan nan nan nan nan nan nan nan nan nan nan nan nan nan nan nan -0 -0 nan nan nan nan nan nan nan nan nan nan nan nan nan nan nan -2 -24 -16 -7 -7 -5 nan nan nan nan nan nan nan nan nan nan nan -0 -0 -0 -0 -0 -0 -0 -0 -1 -0 -0 -0 -0 -0 -0 -0 -0 -0 -0 -0
nan nan nan nan nan nan nan nan nan nan nan nan nan nan nan nan nan nan nan nan nan nan nan nan nan nan nan nan nan nan nan nan nan nan nan nan nan nan nan nan nan nan nan nan nan nan nan nan nan nan -8 -17 -12 -12 -6 nan nan nan nan nan nan nan nan nan nan nan nan -0 -0 -0 -0 -0 -0 -0 -1 -0 -0 -0 -0 -0 -0 -0 -0 -0 -0 -0
nan nan nan nan nan nan nan nan nan nan nan nan nan nan nan nan nan nan nan nan nan nan nan nan nan nan -0 -0 nan nan -0 nan nan nan nan nan nan nan nan nan nan nan nan nan nan nan nan nan nan nan nan nan -11 -11 -7 nan nan nan nan nan nan nan nan nan nan nan nan nan -0 -0 -0 -0 -1 -1 -1 -1 -1 -1 -0 -0 -0 -0 -0 -0 -0 -0
nan nan nan nan nan nan nan nan nan nan nan nan nan nan nan nan nan nan -0 -0 -0 -0 -0 -0 -0 -0 -0 -0 -0 -0 -0 -0 -0 -0 -0 nan nan nan nan nan nan nan nan nan nan nan nan nan nan nan nan nan nan nan nan nan nan nan nan nan nan nan nan nan nan nan nan nan -0 -0 -0 -1 -1 -1 -1 -1 -1 -1 -1 -0 -0 -0 -2 -3 -3 -3
nan nan nan nan nan nan nan nan nan nan nan -0 -0 -0 -0 -0 -0 -0 -0 -0 -0 -0 -0 -0 -0 -0 -0 -0 -0 -0 -0 -0 -0 -0 -0 nan nan nan nan nan nan nan nan nan nan nan nan nan nan nan nan nan nan nan -6 -5 -5 nan nan nan nan nan nan nan nan nan nan -1 -0 -0 -0 -0 -0 -0 -0 -0 -0 -0 -3 -1 -1 -4 -5 -6 -6 -7
nan nan nan nan nan -0 nan -0 nan nan -0 -0 -0 -0 -0 -0 -0 -0 -0 -0 -0 -0 -0 -0 -0 -0 -0 nan nan nan nan nan nan nan nan nan nan nan nan nan nan nan nan nan nan nan nan nan nan nan nan nan -9 -9 -8 -6 -6 -4 nan nan nan nan nan nan nan nan nan -1 -0 -0 -0 -0 -0 -0 -0 -0 -0 -0 -0 -1 -1 -3 -5 -7 -7 -10
-0 -0 -0 -0 -0 -0 -0 -0 -0 -0 -0 -0 -0 -0 -0 -0 -0 -0 -0 -0 -0 -0 -0 -0 -0 -0 nan nan nan nan nan nan nan nan nan nan nan nan nan nan nan nan nan nan nan nan nan nan nan nan nan nan -8 -8 -10 -7 -7 -7 -5 nan nan nan nan nan nan nan nan nan nan nan nan -0 -0 -0 -0 -0 -0 -0 -0 -0 -0 -1 -3 -5 -5 -6
nan nan nan -1 -1 -2 -1 -0 -0 -0 -0 -0 -0 -0 -0 -0 -0 -0 -0 -0 -0 -0 -0 nan nan nan nan nan nan nan nan nan nan nan nan nan nan nan nan nan nan nan nan nan nan nan nan nan nan nan nan nan nan nan nan -7 -7 -7 -5 -5 -5 nan nan nan nan nan nan nan nan nan nan nan nan nan -0 -0 -0 -0 -0 -0 -0 -0 -1 -2 -2 -3
nan nan nan nan nan nan nan -5 -2 -2 -0 -0 -0 -0 -0 -0 -0 -0 -0 -0 -0 nan nan nan nan nan nan nan nan nan nan nan nan nan nan nan nan nan nan nan nan nan nan nan nan nan nan nan nan nan nan nan nan nan nan -10 -10 -8 -6 -5 -5 -4 -4 -3 -3 nan nan nan nan nan nan nan nan nan nan -0 -0 -0 -0 -0 -0 -0 -0 -0 -0 -0
nan nan nan nan nan nan nan nan -1 -1 -0 -0 -0 -0 -0 -0 -0 -0 nan nan nan nan nan -0 -0 nan nan nan nan nan nan nan nan nan nan nan nan nan nan nan nan nan nan nan nan nan nan nan nan nan nan nan nan nan nan -3 -3 -2 -3 -4 -4 -3 -2 -2 -2 nan nan nan nan nan nan nan nan nan nan nan nan nan -0 -0 -0 -0 -0 -0 -0 -0
nan nan nan nan nan nan nan nan -0 -0 -0 -0 -0 -0 -0 -0 -0 -0 nan -0 -0 -0 nan nan nan nan nan nan nan nan nan nan nan nan nan nan nan nan nan nan nan nan nan nan nan nan nan nan nan nan nan nan nan nan nan -0 -0 -0 -0 -0 -0 -1 -2 -3 -3 nan nan nan nan nan nan nan nan nan nan nan nan nan -0 nan nan -0 -0 -0 -0 -0
-0 -0 -0 -0 -0 -0 -0 -0 -0 -0 -0 -0 -0 -0 -0 -0 -0 -0 -0 -0 -0 -0 -0 nan nan nan nan nan nan nan nan nan nan nan nan nan nan nan nan nan nan nan -0 nan nan nan nan nan nan nan nan nan nan nan -0 -0 -0 -0 -0 -0 -0 -0 -0 nan nan nan nan nan nan nan nan nan nan nan nan nan -1 -1 -1 -1 -1 -0 -0 -0 -0 -0
-0 -0 -0 -0 -0 -0 -0 -0 -0 -0 -0 -0 -0 -0 -0 -0 -0 -0 -0 -0 -0 -0 nan nan nan nan nan nan nan nan nan nan nan nan nan nan -0 -0 -0 -0 -0 -0 -0 -2 -2 -0 -0 -0 -0 -0 -0 -0 -0 -0 -0 -0 -0 -0 -0 -0 -0 -0 -0 -0 -0 -0 -0 -1 -3 -3 -5 -7 -5 -5 -3 -2 -0 -0 -0 -0 -0 -0 -0 -0 -0 -0
-0 -0 -0 -0 -0 -0 -0 -0 -0 -0 -0 -0 -0 -0 -0 -0 -0 -0 -0 -0 -0 -0 -0 -0 -0 nan nan nan nan nan nan nan -0 -0 -0 -0 -0 -0 -0 -0 -0 -0 -0 -0 -0 -0 -1 -2 -2 -1 -0 -1 -5 -5 -0 -0 -0 -0 -0 -0 -0 -0 -0 -0 -0 -0 -0 -0 -0 -0 -0 -5 -3 -3 -4 nan nan nan nan -0 -0 -0 -0 -0 -0 -0
-0 -0 -0 -0 -0 -0 -0 -0 -0 -0 -0 -0 -0 -0 -0 -0 -0 -0 -0 -0 -0 -0 -0 -0 -0 -0 -0 -0 -0 -0 nan nan -0 -0 -0 -0 -0 -0 -0 -0 -0 -3 -0 -0 -0 -1 -5 -4 -4 -3 -0 -0 -0 -0 -0 -0 -0 -0 -0 -0 -0 -0 -0 -0 -0 -0 -0 -0 -0 -0 -0 -0 -0 -0 -0 nan nan nan nan nan nan -1 -0 -0 -0 -0
-0 -0 -0 -0 -0 -0 -0 -0 -0 -0 -0 nan nan nan nan -0 -0 -0 -0 -0 -0 -0 -0 -0 -0 -0 -0 -0 -0 -0 -0 nan -0 -0 -0 -0 -0 -0 -0 -0 -0 -1 -0 -3 -3 -3 -2 -0 -0 -0 -0 -0 -0 -0 -0 -0 -0 -0 -0 -0 -0 -0 -0 -0 -0 -0 -0 -0 -0 -0 -0 -0 -0 -0 -0 nan nan nan nan nan nan nan -0 -0 -0 -0
-0 -0 -0 -0 -0 -0 -0 -0 nan nan nan nan nan nan nan -0 -0 -0 -0 -0 -0 -0 -0 -0 -0 -0 -0 -0 -0 -0 -0 -0 -0 -0 -0 -0 -0 -0 -0 -0 -0 -2 -0 -0 -0 -4 -2 -0 -0 -0 -0 -0 -0 -0 -0 -0 -0 -0 -0 -0 -0 -0 -0 -0 -0 -0 -0 -0 -0 -0 -0 -0 -0 -0 -0 -4 nan nan nan nan nan nan nan -1 -1 -0
-0 -0 -0 -0 -0 -0 nan nan nan nan nan nan nan nan -0 -0 -0 -0 -0 -0 -0 -0 -0 -0 -0 -0 -0 -0 -0 -0 -0 -0 -0 -0 -0 -0 -0 -0 -0 -0 -0 -0 -1 -0 -0 -0 -0 -0 -0 -0 -0 -0 -0 -0 -0 -0 -0 -0 -0 -0 -0 -0 -0 -0 -0 -0 -0 -0 -0 -0 -0 -0 -0 -0 -0 -0 -2 -2 nan nan nan nan nan nan nan -1
-0 -0 -0 -0 -0 -0 -0 -0 -0 -0 -0 nan -0 -0 -0 -0 -0 -0 -0 -0 -0 -0 -0 -0 -0 -0 -0 -0 -0 -0 -0 -0 -0 -0 -0 -0 -0 -0 -0 -0 -0 -0 -0 -0 -0 -0 -0 -0 -0 -0 -0 -0 -0 -0 -0 -0 -0 -0 -0 -0 -0 -0 -0 -0 -0 -0 -0 -0 -0 -0 -0 -0 -0 -0 -0 -0 -0 -0 nan nan nan nan nan nan nan -0
-0 -0 -0 -0 -0 -0 -0 -0 -0 -0 -0 -0 -0 -0 -0 -0 -0 -0 -0 -0 -0 -0 -0 -0 -0 -0 -4 -5 -0 -0 -0 -3 -4 -4 -5 -12 -5 -5 -0 -0 -0 -0 -0 -0 -0 -0 -0 -1 -1 -0 -0 -0 -0 -0 -2 -0 -0 -0 -0 -0 -0 -0 -0 -0 -0 -0 -0 -0 -0 -0 -0 -0 -0 -0 -0 -0 -0 -0 -0 -0 -0 -0 -0 -0 -0 -0
-0 -0 -0 -0 -0 -0 -0 -0 -0 -0 -0 -0 -0 -0 -0 -0 -0 -0 -0 -0 -0 -0 -0 -0 -0 -0 -0 -0 -0 -0 -0 -5 -0 -0 -6 -22 -11 -11 -0 -0 -0 -0 -0 -2 -2 -1 -0 -1 -1 -0 -0 -1 -2 -2 -7 -4 -4 -2 -0 -4 -4 -6 -0 -0 -0 -0 -0 -0 -0 -0 -0 -0 -0 -0 -0 -0 -0 -0 -0 nan nan nan -0 -0 -0 -0
-0 -0 -0 -0 -0 -0 -0 -0 -0 -0 -0 -0 -0 -0 -0 -0 -0 -0 -0 -0 -0 -0 -0 -0 -0 -0 -0 -0 -0 -0 -0 -14 -3 -3 -13 nan nan nan -1 -0 -0 -0 -0 -0 -0 -1 -0 -1 -1 -1 -1 -1 -2 -2 -2 -5 -5 -0 -0 -2 -2 -2 -0 -0 -0 -0 -0 -1 -1 -1 -0 -0 -0 -0 -0 -0 -0 -0 -0 -0 -0 -0 -0 -0 -0 -0
-0 -0 -0 -0 -0 -0 -0 -0 -0 -0 -0 -0 -0 -0 -0 -0 -0 -0 -0 -0 -0 -0 -0 -0 -0 -0 -0 -0 -0 -0 -4 -8 -26 -26 nan nan nan nan -8 -0 -0 -2 -1 -0 -0 -1 -1 -1 -1 -2 -2 -2 -2 -2 -2 -1 -1 -0 -0 -2 -2 -1 -0 -0 -0 -0 -2 -3 -4 -4 -0 -0 -0 -0 -0 -0 -0 -0 -0 -0 -0 -0 -0 nan nan nan
-0 -0 -0 -0 -0 -0 -0 -0 -0 -0 -0 -0 -0 -0 -0 -0 -0 -0 -0 -0 -0 -0 -0 -0 -0 -0 -0 -0 -0 -0 -8 -18 -9 -9 -17 nan nan nan -0 -0 -0 -0 -0 -1 -1 -1 -2 -3 -3 -1 -2 -2 -2 -2 -1 -0 -0 -0 -0 -0 -0 -2 -4 -2 -2 -0 -3 -3 -5 -5 -2 -0 -0 -0 -0 -0 -0 -0 -0 -0 -0 -0 -0 -0 -0 nan
-0 -0 -0 -0 -0 -0 -0 -0 -0 -0 -0 -0 -0 -0 -0 -0 -0 -0 -0 -0 -0 -0 -0 -0 -0 -0 -0 -0 -0 -0 -0 -10 -16 -16 -13 -11 -23 -23 -4 -0 -0 -0 -1 -1 -1 -1 -2 -3 -3 -2 -3 -2 -2 -2 -1 -2 -2 -2 -1 -0 -0 -2 -2 -2 -2 -1 -2 -2 -4 -4 -5 -2 -0 -0 -0 -0 nan nan -0 -0 -0 -0 -0 -0 -0 -0
-0 -0 -0 -0 -0 -0 -0 -0 -0 -0 -0 -0 -0 -0 -0 -0 -0 -0 -0 -0 -0 -0 -0 -0 -0 -0 -0 -0 -0 -0 -0 -0 -7 -7 -17 -13 -17 -17 -10 -1 -1 -0 -1 -2 -2 -2 -1 -0 -0 -0 -0 -2 -1 -1 -1 -2 -2 -3 -1 -2 -2 -3 -4 -2 -2 -1 -0 -0 -5 -5 -7 -4 -0 -0 -0 -0 -0 -0 -0 -0 -0 -0 -0 -0 -0 -0
-0 -0 -0 -0 -0 -0 -0 -0 -0 -0 -0 -0 -0 -0 -0 -0 -0 -0 -0 -0 -0 -0 -0 -0 -0 -0 -0 -0 -0 -0 -0 -0 -0 -0 -0 -8 -17 -17 -9 -3 -3 -0 -0 -2 -2 -3 -0 -0 -0 -0 -3 -2 -1 -1 -0 -3 -3 -2 -2 -2 -2 -4 -3 -2 -2 -1 -1 -1 -7 -7 -11 -6 -1 -1 -0 -0 -0 -0 -0 -0 -0 -0 -0 -0 -0 -0
-0 -0 -0 -0 -0 -0 -0 -0 -0 -0 -0 -0 -0 -0 -0 -0 -0 -0 -0 -0 -0 -0 -0 -0 -0 -0 -0 -0 -0 -0 -0 -0 -0 -0 -0 -0 -0 -0 -0 -5 -5 -10 -3 -1 -1 -1 -2 -6 -6 -6 -3 -1 -0 -0 -1 -2 -2 -3 -4 -4 -4 -3 -0 -0 -0 -0 -0 -0 -3 -3 -7 -6 -1 -1 -0 -0 -0 -0 -0 -0 -0 -0 -0 -0 -0 -0
-0 -0 -0 -0 -0 -0 -0 -0 -0 -0 -0 -0 -0 -0 -0 -0 -0 -0 -0 -0 -0 -0 -0 -0 -0 -0 -0 -0 -0 -0 -0 -0 -0 -0 -0 -0 -0 -0 -0 -0 -0 -3 -4 -4 -4 -5 -7 nan nan -11 -3 -1 -0 -0 -0 -0 -0 -2 -1 -1 -1 -0 -0 -0 -0 -0 -5 -3 -11 -11 -7 -2 -1 -1 -0 -0 -0 -0 -0 -0 -0 -0 -0 -0 -0 -0
-0 -0 -0 -0 -0 -0 -0 -0 -0 -0 -0 -0 -0 -0 -0 -0 -0 -0 -0 -0 -0 -0 -0 -0 -0 -0 -0 -0 -0 -0 -0 -0 -0 -0 -0 -0 -0 -0 -0 -1 -1 -0 -1 -3 -3 -2 -1 -4 -4 -3 -6 -2 -1 -1 -0 -0 -0 -0 -0 -0 -0 -0 -0 -0 -0 -0 -1 -12 nan nan nan -0 -0 -0 -0 -0 -0 -0 -0 -0 -0 -0 -0 -0 -0 -0
-0 -0 -0 -0 -0 -0 -0 -0 -0 -0 -0 -0 -0 -0 -0 -0 -1 -1 -0 -0 -0 -0 -0 -0 -0 -0 -0 -0 -0 -0 -0 -0 -0 -0 -0 -0 -0 -0 -3 -1 -1 -1 -3 -1 -1 -0 -0 -3 -3 -1 -0 -0 -1 -1 -0 -0 -0 -0 -0 -0 -0 -0 -0 -0 -0 -0 -1 -6 -16 -16 nan -0 -0 -0 -0 -0 -0 -0 -0 -0 -0 -0 -0 -0 -0 -0
-0 -0 -0 -0 -0 -0 -0 -0 -0 -0 -0 -0 -0 -0 -0 -0 -0 -0 -0 -0 -0 -0 -0 -0 -0 -0 -0 -0 -0 -0 -0 -0 -0 -0 -0 -0 -0 -0 -0 -0 -0 -0 -0 -0 -0 -0 -2 -3 -3 -3 -1 -0 -0 -0 -3 -2 -2 -0 -0 -0 -0 -0 -1 -2 -2 -1 -1 -1 -1 -1 nan -0 -0 -0 nan -0 -0 -0 -0 -0 -0 -0 nan nan nan nan
Wind_Speed
2 1 1 1 1 2 3 2 2 1 1 1 1 1 1 1 0 0 0 1 1 2 2 2 2 2 2 3 4 4 5 5 6 6 6 6 6 7 7 7 7 7 7 8 8 8 8 9 9 10 10 11 12 12 13 14 14 14 15 15 15 15 16 16 16 16 16 16 16 16 16 16 16 16 16 16 17 17 17 18 18 18 18 19 19 20
2 2 1 1 1 2 3 3 2 2 2 2 2 2 2 1 1 1 1 1 1 1 1 1 2 2 2 3 3 4 4 5 5 6 6 6 7 7 7 8 8 8 8 8 9 9 9 9 10 10 11 12 12 13 13 14 14 15 15 15 15 15 15 16 16 16 16 16 16 16 16 16 16 16 17 17 18 18 18 18 18 19 19 19 20 20
2 2 2 1 1 1 2 2 2 2 2 2 2 2 2 2 1 1 1 1 1 1 1 1 1 2 2 2 2 3 4 4 5 6 6 7 7 7 8 8 8 9 9 9 9 9 10 10 11 11 12 12 13 13 14 14 14 14 15 15 15 15 15 15 15 15 16 16 16 16 16 16 16 17 17 18 18 18 19 19 19 19 19 20 20 20
2 2 2 1 1 1 1 2 2 2 2 2 2 2 2 2 2 1 1 2 2 1 1 1 2 2 2 2 2 2 3 4 5 6 6 7 7 8 8 9 9 9 9 10 10 10 11 11 11 12 12 13 13 14 14 14 14 14 14 14 14 14 14 14 15 15 15 15 16 16 16 16 17 17 17 18 18 18 19 19 19 19 20 20 20 21
2 2 1 1 1 1 1 2 2 2 2 2 2 2 3 2 2 2 2 2 2 2 2 2 2 2 2 2 2 2 3 4 5 6 7 8 8 8 9 9 9 10 10 10 10 11 11 11 12 12 13 13 14 14 14 14 14 14 14 14 14 14 14 14 14 15 15 15 16 16 16 16 17 17 17 18 18 18 19 19 19 20 20 20 21 21
2 2 1 1 1 1 1 2 2 2 2 2 2 2 2 2 2 2 2 2 2 2 2 2 2 2 2 2 2 3 4 5 6 7 7 8 8 9 9 9 10 10 10 10 11 11 12 12 12 13 13 13 14 14 14 14 14 14 14 14 14 14 14 14 14 15 15 15 16 16 16 16 17 17 17 17 18 18 19 19 19 20 20 21 21 21
2 2 1 1 1 1 1 1 1 2 2 2 2 2 2 2 2 2 2 2 3 2 2 3 3 3 3 3 3 3 4 5 6 7 7 8 8 8 9 9 9 9 10 10 11 11 12 12 12 13 13 14 14 14 14 14 14 14 14 14 14 14 14 14 15 15 15 16 16 16 16 17 17 17 17 17 18 18 19 19 20 20 21 21 21 22
2 2 1 1 1 1 1 1 1 1 2 2 2 2 2 1 1 1 2 2 2 2 2 3 3 3 3 3 4 4 4 5 5 6 6 6 7 7 7 8 8 9 9 10 10 11 11 12 12 13 13 14 14 14 14 14 14 14 14 14 14 14 15 15 15 16 16 16 16 16 17 17 17 17 17 18 18 19 19 20 20 21 21 22 22 22
2 2 2 1 1 0 1 1 2 1 1 1 2 2 2 2 2 2 2 2 2 2 2 2 3 3 3 4 4 5 5 5 5 6 6 6 6 6 6 7 8 8 9 9 10 11 11 12 12 13 14 14 14 14 15 14 14 14 14 14 14 15 15 15 16 16 16 16 16 17 17 17 17 18 18 18 19 19 20 20 21 21 22 22 23 23
2 2 2 1 1 0 0 1 2 2 1 1 1 2 2 2 2 2 2 2 1 1 1 2 3 3 4 4 4 4 5 5 6 7 7 7 7 7 7 7 7 8 9 9 10 11 12 12 13 13 14 14 15 15 15 14 14 14 14 14 14 15 15 15 16 16 16 17 17 17 17 18 18 18 18 19 19 19 20 20 21 22 22 23 23 23
2 1 1 1 1 1 1 0 1 1 1 2 2 2 1 1 2 3 3 3 3 2 1 2 2 3 3 4 4 4 4 5 5 6 6 6 7 7 7 7 7 8 9 10 10 11 12 12 13 14 14 15 15 15 15 14 14 13 13 14 14 14 15 15 15 16 16 17 17 17 18 18 18 19 19 19 20 20 20 20 21 21 22 22 23 23
1 1 0 1 1 1 1 1 1 1 2 2 2 1 1 1 1 2 3 4 4 3 3 3 2 3 3 4 4 4 4 4 4 4 4 4 5 5 5 6 6 7 8 9 10 11 12 13 13 14 14 15 15 15 15 14 13 13 13 13 13 14 14 15 15 16 17 17 18 18 18 19 19 19 19 20 20 20 20 21 21 21 21 22 22 23
1 1 1 1 1 1 1 1 1 1 1 1 1 1 1 1 1 2 2 3 4 4 4 3 3 3 4 4 3 3 3 3 3 3 3 3 4 4 4 5 5 6 6 7 7 8 10 11 12 13 14 14 15 15 14 13 12 12 12 13 13 14 15 15 16 16 17 17 18 18 19 19 19 19 20 20 20 20 20 21 21 21 21 22 22 22
1 1 1 1 1 1 0 0 1 1 1 1 1 1 2 2 2 2 2 3 3 3 3 4 4 4 3 3 3 3 3 3 3 3 3 3 4 4 4 5 5 5 6 6 6 7 8 9 10 11 12 13 14 14 13 13 12 13 13 14 15 15 16 16 17 17 17 18 18 19 19 19 19 20 20 20 20 20 21 21 21 21 21 21 22 22
1 1 1 1 1 1 0 0 1 1 1 1 1 1 1 2 2 2 2 3 3 3 4 4 4 4 3 2 2 2 2 2 2 3 4 4 4 4 5 5 5 5 6 6 6 7 8 8 8 8 9 12 13 13 13 14 15 16 16 16 17 17 17 18 18 18 18 19 19 19 19 19 20 20 20 20 21 21 21 21 21 21 21 21 22 22
0 1 1 1 1 1 0 0 1 1 1 1 1 1 2 2 2 2 3 3 3 3 3 4 4 4 3 1 1 1 1 1 2 3 4 5 4 4 5 6 6 6 6 6 7 7 7 7 8 8 9 11 12 13 14 15 17 18 18 19 19 19 19 19 19 19 19 19 19 19 20 20 20 20 21 21 21 21 21 21 21 21 21 21 22 22
1 1 1 1 1 1 1 1 1 1 1 1 1 1 2 2 2 2 3 3 3 3 3 3 3 3 3 1 1 2 1 1 3 4 5 6 5 5 5 5 6 6 6 6 7 7 7 7 7 8 8 10 11 13 14 16 17 19 20 20 20 20 20 20 20 20 20 20 20 20 20 20 20 21 21 21 21 21 21 21 21 21 21 21 22 22
1 1 1 1 1 1 1 1 1 1 1 1 1 1 1 2 2 2 3 3 3 3 3 3 3 3 3 3 1 1 1 2 3 4 6 6 6 5 4 5 5 6 6 7 7 7 7 7 7 7 8 11 12 13 15 17 18 20 21 21 21 21 21 20 20 20 20 20 20 20 20 21 21 21 21 21 21 21 21 21 21 21 21 21 22 22
1 1 1 1 1 1 1 1 1 1 1 1 2 2 2 2 2 2 3 3 3 3 3 3 3 3 3 4 3 3 2 3 4 5 6 6 6 5 4 4 5 6 6 7 7 7 7 7 8 9 11 12 13 14 15 17 18 20 21 21 21 21 21 21 21 21 21 21 21 21 21 21 21 21 21 21 21 21 21 21 21 21 21 22 22 22
1 1 1 1 2 2 2 1 1 1 2 2 2 2 3 3 3 3 3 3 3 3 3 4 4 4 4 4 4 4 4 5 5 5 5 6 6 5 5 5 6 6 6 6 6 6 6 6 7 8 10 11 12 13 15 16 18 19 21 21 22 22 22 22 21 21 21 21 21 21 21 21 21 21 21 21 21 21 21 21 21 21 21 21 21 22
2 2 1 1 2 2 2 2 2 2 2 3 3 3 3 3 3 3 3 3 4 4 4 4 4 4 4 5 5 5 5 6 6 5 5 5 5 5 4 5 6 7 7 6 6 6 6 7 7 7 8 10 11 12 14 15 17 19 21 22 22 23 23 22 22 21 21 21 21 21 21 21 21 21 21 21 21 21 21 21 21 21 21 21 21 21
2 2 2 2 2 2 2 2 3 3 3 3 3 3 2 3 3 4 4 4 4 5 5 5 5 5 5 6 6 6 6 6 6 6 4 5 6 5 4 5 6 7 7 7 6 7 7 7 7 7 9 11 12 13 14 15 17 19 21 22 23 23 23 23 22 22 21 21 21 21 21 21 21 21 21 21 20 20 20 20 20 20 20 20 21 21
3 3 3 3 3 2 2 3 3 3 3 3 3 3 3 3 3 4 4 4 5 5 6 6 6 6 6 7 7 6 6 6 5 5 5 6 6 6 4 5 6 7 7 6 7 7 7 7 7 8 9 12 13 14 14 16 17 19 21 22 23 23 23 22 22 22 21 21 20 20 20 20 20 20 20 20 20 20 20 20 19 19 20 20 20 20
3 3 3 3 3 3 3 3 3 3 3 3 3 3 3 4 4 4 4 5 5 5 6 6 6 7 6 7 6 6 5 5 5 4 4 5 6 5 4 5 6 7 7 6 7 7 8 7 7 7 8 11 13 14 15 15 17 18 20 21 22 23 23 22 22 21 21 20 20 20 20 20 20 20 20 20 20 20 20 19 19 19 19 20 20 20
3 3 3 3 3 3 4 4 4 4 4 4 4 4 4 5 6 6 5 5 5 6 6 6 7 7 6 6 5 5 4 4 4 4 4 4 5 6 5 5 7 8 8 7 7 7 8 8 7 7 8 10 12 13 14 15 16 17 19 20 22 23 23 23 22 22 21 20 20 19 19 19 19 19 19 19 19 20 20 19 19 19 20 20 20 20
5 5 5 6 6 7 7 8 8 8 8 7 6 5 5 5 5 5 5 5 5 6 6 7 7 6 5 5 4 4 3 3 3 3 3 4 5 6 5 5 6 7 8 7 7 7 8 8 8 8 8 9 11 12 14 15 16 17 18 19 21 22 23 23 22 22 21 21 20 20 20 19 19 19 19 19 19 19 20 20 20 20 20 21 20 20
7 8 9 9 9 9 9 10 10 10 10 9 8 7 7 6 6 6 6 5 5 6 6 7 7 6 6 5 5 4 4 3 3 3 4 4 5 5 5 5 6 7 8 7 7 7 9 9 8 8 8 8 9 10 13 14 15 16 17 18 20 21 22 22 22 22 22 22 22 22 22 21 20 20 19 19 19 20 20 20 21 21 21 20 19 17
8 8 9 9 9 9 9 9 9 9 9 9 10 9 8 6 6 6 6 5 5 6 6 6 7 6 6 5 5 5 5 4 4 4 4 5 5 5 4 5 6 7 7 7 7 7 9 9 9 8 8 8 8 9 10 12 13 15 16 17 18 19 20 20 21 21 22 23 24 24 24 24 23 22 21 20 20 20 21 21 22 22 20 18 15 13
7 8 8 8 8 8 8 8 8 8 8 9 9 9 7 6 6 6 6 5 6 6 7 6 7 6 6 6 6 6 5 5 5 5 5 4 4 4 4 5 6 6 6 6 6 6 7 7 7 7 7 8 7 7 8 10 11 12 14 16 17 17 18 19 20 21 23 24 25 25 26 25 24 23 22 22 21 21 21 22 22 20 16 14 12 11
5 6 6 7 7 7 7 7 7 7 8 8 9 8 7 6 6 6 6 6 6 6 7 7 7 7 6 6 6 5 4 4 3 3 3 4 4 4 4 5 6 6 5 5 6 6 5 5 5 6 7 7 7 7 7 8 9 10 11 13 14 15 17 18 19 21 22 23 24 25 25 25 24 23 23 22 21 21 21 22 20 17 12 11 11 11
5 5 5 5 5 5 5 5 5 6 7 7 8 7 7 6 6 6 6 6 6 6 7 7 7 7 7 6 5 5 3 2 2 3 3 3 4 4 5 6 6 6 5 5 5 6 6 4 4 5 6 7 8 8 8 9 9 9 9 10 10 12 14 16 18 19 20 21 22 23 23 23 22 22 21 21 21 21 21 21 19 16 11 11 10 10
5 5 5 5 5 5 4 5 5 5 5 6 6 6 6 6 6 5 5 6 6 6 7 7 7 7 7 6 6 5 4 3 4 4 5 4 4 4 5 6 7 6 5 4 5 6 6 5 5 5 6 8 8 8 9 9 9 9 9 9 9 10 12 14 15 16 17 18 19 20 20 20 20 20 20 20 20 20 20 21 19 16 11 11 10 11
5 5 5 5 5 5 5 4 5 5 5 5 5 5 5 5 5 6 5 5 6 6 6 7 7 7 7 7 7 6 5 4 5 6 6 5 5 4 4 6 7 7 6 5 6 6 6 6 6 6 7 7 7 8 8 8 8 9 9 9 9 9 11 12 13 13 13 14 15 16 17 17 18 18 18 19 19 19 20 20 20 17 14 11 10 10
5 5 5 5 5 5 5 5 5 5 5 5 5 5 4 5 5 5 5 5 5 5 6 6 7 7 7 7 7 7 6 5 6 6 7 6 5 4 5 6 7 7 6 6 6 6 6 8 7 7 7 7 7 7 8 8 9 9 9 9 9 9 10 10 10 10 11 11 11 11 12 13 14 15 16 17 17 18 18 19 19 19 17 13 11 11
5 5 5 5 5 5 5 5 5 5 5 5 5 5 5 4 5 5 5 5 5 5 5 6 6 6 7 7 7 7 6 6 6 7 7 6 5 5 6 6 6 6 7 7 6 5 6 8 9 8 8 8 8 7 7 8 9 9 9 9 9 9 9 9 9 10 10 10 10 10 10 10 11 12 13 14 15 16 17 18 18 19 19 17 15 13
5 5 5 5 5 5 5 5 5 5 4 4 4 4 4 5 5 5 5 5 5 6 6 6 6 6 7 7 7 8 8 7 7 8 8 7 6 6 6 6 6 7 8 8 7 6 6 8 9 9 9 9 9 7 7 7 8 9 9 9 9 9 9 9 10 10 10 10 10 10 10 10 10 11 11 13 15 16 17 17 17 18 19 19 18 17
5 5 5 5 5 5 5 4 4 4 4 4 4 4 4 5 5 5 5 5 6 6 7 7 7 8 8 8 8 8 8 8 8 9 9 8 7 7 7 7 7 7 8 8 8 8 7 9 9 9 9 9 8 7 7 7 8 9 9 9 9 9 10 10 10 11 11 11 11 11 11 11 11 11 11 13 14 14 15 16 16 16 17 18 18 19
5 5 5 5 4 4 4 4 4 4 4 4 4 5 5 5 5 6 6 6 7 7 7 7 7 8 11 11 11 11 11 11 11 12 12 10 9 8 8 8 8 8 8 9 9 9 8 9 9 9 9 8 9 9 9 9 9 9 9 9 9 10 10 10 11 11 11 12 12 13 12 12 11 11 11 11 10 10 10 10 11 12 13 14 15 17
5 5 5 4 4 4 4 4 4 4 4 4 5 5 5 6 6 7 6 7 7 8 8 8 8 8 9 10 12 13 13 13 13 13 12 10 8 8 9 9 9 9 8 9 9 9 9 9 9 9 9 9 9 10 9 9 10 10 10 10 10 10 10 10 11 12 12 12 12 13 12 11 10 10 9 9 9 8 8 8 8 9 9 9 10 12
5 5 5 5 4 4 4 5 5 5 5 5 5 6 6 6 6 6 7 7 7 7 8 9 9 8 8 9 10 11 12 11 11 11 10 7 6 7 8 9 9 9 8 8 8 8 9 9 9 10 10 9 10 10 9 9 10 10 11 10 8 8 9 10 11 12 11 12 12 12 11 10 9 9 9 9 9 8 8 8 8 8 8 8 8 8
5 5 5 5 5 5 5 5 5 5 5 5 5 5 5 5 5 6 6 6 6 6 7 7 8 8 8 8 9 10 11 10 10 10 9 7 7 8 8 9 9 9 8 8 8 8 9 10 10 10 10 9 10 11 12 11 12 13 13 11 10 10 10 11 12 12 12 11 11 10 10 10 10 9 9 9 9 9 8 8 8 8 8 7 7 7
6 5 5 5 5 4 5 5 6 6 6 6 6 6 5 5 5 6 6 6 6 6 6 6 7 7 8 8 8 9 9 9 8 8 8 8 9 9 9 9 8 8 8 9 9 9 9 10 10 11 10 9 10 11 12 12 12 13 13 12 12 12 11 11 11 11 11 11 9 8 9 9 9 9 9 9 9 9 9 9 9 9 8 7 7 7
5 5 5 5 5 5 6 6 6 6 6 6 6 6 6 5 5 6 6 6 6 7 7 7 7 7 8 8 8 8 8 8 9 9 10 9 9 10 10 11 10 9 9 9 10 10 9 10 10 11 10 10 10 11 12 12 12 12 12 12 11 10 7 7 8 10 11 10 9 8 8 9 9 8 8 8 8 8 8 9 9 9 8 7 7 7
5 5 5 5 5 5 6 6 6 6 6 6 6 6 6 6 6 6 6 6 7 7 7 7 7 7 8 8 8 8 8 8 9 9 10 10 10 10 10 11 12 11 10 10 9 9 9 9 10 10 10 10 10 10 11 11 11 11 11 11 11 10 9 8 9 9 10 9 9 9 8 8 7 7 7 7 7 7 8 8 8 8 8 7 7 7
5 5 5 5 5 5 6 6 6 6 6 6 6 6 6 6 7 7 6 6 7 7 7 7 6 6 7 8 8 8 8 8 7 7 8 9 10 10 10 10 10 10 10 10 9 9 9 9 9 9 9 9 10 11 11 11 11 11 11 11 11 12 12 11 10 10 10 10 10 9 8 7 6 6 6 6 7 7 8 8 8 8 8 8 7 8
5 5 6 5 6 6 6 6 6 6 6 6 6 6 6 7 6 6 7 7 7 7 7 7 6 6 7 8 8 7 8 8 7 7 7 7 7 7 8 8 9 9 9 9 10 10 10 10 10 10 9 9 10 11 11 11 11 11 10 10 11 11 11 11 10 10 11 11 11 10 9 8 7 6 6 7 7 7 8 8 8 9 9 8 8 8
6 6 6 6 6 6 6 6 6 6 6 6 7 6 6 6 6 6 7 7 7 7 7 7 7 8 8 8 8 8 8 8 8 7 7 7 7 7 7 8 8 9 9 10 10 11 12 12 11 10 10 10 10 11 11 11 11 11 11 10 10 10 11 10 10 10 11 10 10 10 9 7 7 7 7 7 7 7 7 8 8 8 8 8 7 7
6 6 6 6 6 6 6 6 6 6 7 7 7 7 6 7 7 7 7 7 7 7 7 7 7 8 8 8 8 8 9 9 9 8 8 7 7 8 7 7 8 8 9 10 11 12 12 12 13 12 11 11 11 11 11 11 12 12 11 11 11 11 11 11 10 10 10 10 9 8 6 6 6 7 7 7 7 7 8 8 8 7 7 7 7 7
6 6 6 6 6 6 6 6 7 7 7 7 7 7 7 7 8 8 7 7 7 7 7 8 8 8 8 8 8 9 9 9 9 8 8 8 7 7 7 7 8 8 8 9 10 10 11 12 13 14 13 12 12 12 12 12 12 12 12 11 11 11 11 10 10 10 10 9 7 5 3 4 5 6 6 7 8 8 9 8 8 8 7 7 6 6
6 6 6 6 7 7 7 7 7 7 7 7 7 7 7 7 7 7 7 7 7 7 7 8 8 8 8 9 9 9 9 9 8 8 8 8 7 7 7 7 8 8 8 8 8 8 9 9 10 12 15 16 15 14 13 12 12 12 12 11 10 10 10 10 9 9 8 8 6 4 4 4 4 5 5 6 8 9 9 9 8 8 7 7 7 7
6 6 6 7 7 7 7 7 7 7 7 7 7 7 7 6 6 6 6 7 7 7 7 7 8 8 9 9 9 9 9 9 9 9 9 8 8 8 8 8 8 8 8 7 7 7 6 6 7 9 11 16 18 18 13 12 12 11 11 11 10 9 9 9 8 8 7 6 5 4 4 4 4 4 4 6 7 8 8 8 8 8 7 7 7 7
Wind_Direction
93 103 118 220 186 149 116 103 83 61 65 65 51 35 19 8 8 26 325 320 334 346 352 351 347 342 339 330 323 319 316 316 316 316 315 314 312 310 308 305 302 299 297 294 292 290 288 287 287 287 288 289 290 291 291 292 293 293 293 293 293 293 293 293 293 293 293 292 292 292 291 291 291 290 289 287 285 283 282 280 279 278 278 277 276 275
128 132 137 177 163 137 122 114 92 49 21 27 30 24 6 359 15 48 34 352 337 339 347 350 341 334 333 329 319 312 309 309 309 309 308 306 305 303 300 298 296 294 292 291 289 287 286 286 285 285 286 287 287 288 289 290 291 292 293 293 293 293 293 293 293 292 292 291 291 291 291 290 289 288 286 284 282 281 279 278 277 276 275 275 274 273
143 136 127 113 98 97 108 104 88 55 16 12 11 8 359 359 13 28 15 1 354 351 354 351 338 326 325 319 307 299 297 299 300 300 299 298 297 295 293 291 290 288 287 286 285 283 283 282 282 282 283 284 285 286 287 288 289 290 290 290 291 291 291 291 291 290 290 289 289 288 287 286 285 284 283 281 280 279 278 277 276 276 275 274 274 273
135 125 116 113 100 81 63 53 44 29 10 359 355 355 357 2 9 13 1 354 350 350 356 351 342 334 323 316 302 290 283 286 289 291 291 290 288 287 286 285 284 283 282 281 280 279 279 279 279 280 280 281 283 284 285 285 286 286 287 287 287 287 288 288 288 287 287 286 285 285 284 283 282 281 281 280 280 279 279 278 277 276 276 275 275 275
120 103 93 91 85 74 54 32 14 1 354 351 351 353 359 1 359 354 349 349 348 349 353 349 340 333 322 315 305 291 279 279 281 283 283 283 282 281 280 280 279 278 277 277 276 276 276 276 277 277 278 279 280 281 282 282 283 283 283 283 284 284 285 285 285 285 285 284 284 283 282 281 281 280 280 280 280 279 279 278 278 277 277 277 276 276
111 93 74 57 46 41 40 26 9 354 347 348 350 353 357 354 347 342 341 346 347 347 347 340 333 326 318 312 304 295 285 280 278 277 277 275 275 274 274 275 275 275 275 275 275 274 274 275 275 276 276 277 278 278 279 279 279 279 280 280 281 282 283 284 284 284 284 284 283 282 281 281 280 279 279 279 279 278 278 278 277 277 277 277 277 276
109 103 94 86 66 45 36 29 12 358 348 344 344 346 347 344 338 335 336 338 338 337 335 331 327 321 317 317 311 304 294 286 280 276 273 270 269 270 271 271 272 273 274 274 274 274 274 275 275 276 277 277 277 277 277 277 277 277 278 279 280 281 283 284 284 284 284 284 283 282 282 281 280 279 279 278 278 278 278 277 277 277 276 276 276 276
119 125 136 135 135 138 145 121 71 15 352 340 335 336 338 338 334 331 328 320 318 320 322 323 321 319 319 324 322 316 309 302 297 291 283 278 275 274 275 275 275 276 276 275 275 276 277 277 277 278 278 278 278 277 277 277 277 277 277 279 280 281 282 283 284 284 284 284 284 283 283 282 281 280 280 279 279 278 278 278 277 277 277 277 276 276
124 135 141 136 137 161 178 143 129 111 9 327 325 328 331 336 338 336 328 308 297 295 308 314 315 316 319 323 321 317 314 310 309 307 302 300 297 294 291 290 287 283 281 280 280 280 280 280 280 279 279 279 279 278 277 277 277 277 277 278 280 281 282 283 284 284 285 285 284 284 284 284 283 283 282 281 281 280 280 279 279 279 278 278 277 277
126 133 138 136 131 122 280 135 126 127 154 265 290 304 315 331 339 339 330 319 302 275 268 289 301 308 311 313 311 309 308 304 301 299 297 296 297 298 297 295 292 288 286 285 284 282 282 282 281 281 281 281 280 279 279 277 277 276 276 277 279 280 281 282 283 284 285 285 285 285 285 285 285 285 285 284 284 283 282 282 281 280 280 279 279 278
127 130 145 147 149 156 237 240 120 134 179 221 230 232 234 322 347 342 329 322 315 303 280 279 289 298 303 304 304 304 303 299 295 292 289 287 288 290 290 289 288 288 288 287 286 285 284 284 284 284 284 283 282 281 280 278 276 275 275 276 278 279 281 282 284 284 285 285 286 286 286 286 287 287 287 286 286 285 285 284 283 282 281 280 280 279
124 128 162 178 175 176 186 198 184 181 199 219 226 217 175 117 30 342 321 314 311 309 304 300 294 290 288 291 295 298 296 293 291 290 288 287 287 288 288 289 289 289 291 289 288 288 287 287 287 287 286 286 284 283 281 279 277 276 275 277 279 281 282 284 285 285 285 286 286 286 286 286 287 287 287 287 287 286 286 285 284 283 282 281 280 279
133 147 210 218 212 202 187 201 201 200 208 247 317 341 1 33 9 326 303 298 299 301 304 301 295 286 277 272 274 278 283 284 285 287 288 288 289 291 291 290 291 292 293 291 289 288 288 288 288 287 286 286 285 284 282 281 280 279 279 281 283 285 286 286 286 286 286 286 286 285 285 286 286 286 286 287 286 286 286 285 284 283 282 281 280 279
153 178 218 224 217 207 195 245 281 298 312 354 359 353 342 335 316 298 286 286 291 296 300 296 293 287 275 254 246 248 264 276 283 286 285 286 289 291 292 290 290 291 292 289 286 285 285 285 285 285 284 284 284 285 286 285 285 286 287 288 289 289 289 289 289 288 287 286 285 285 284 285 285 285 285 286 286 286 285 285 284 283 282 281 281 280
172 209 238 244 241 231 207 287 305 310 322 347 356 343 316 301 293 289 289 294 299 302 300 295 292 289 282 266 247 236 251 269 281 285 287 286 287 289 289 286 285 285 285 283 281 279 278 277 276 277 279 281 284 287 289 291 292 292 292 291 291 291 291 291 291 290 289 288 286 285 284 284 284 285 285 285 285 285 285 284 284 283 282 281 281 280
222 251 254 260 261 264 276 308 310 309 316 329 333 318 302 299 299 301 303 305 306 305 301 300 300 298 289 301 97 120 196 262 278 288 293 290 287 284 282 280 278 277 277 277 277 276 274 271 270 271 272 275 279 282 284 288 290 291 292 292 292 293 293 292 292 292 291 289 288 286 285 284 284 285 285 285 285 285 285 284 284 283 282 281 281 280
242 257 266 272 274 276 290 298 294 296 304 309 309 307 302 306 308 309 307 305 303 301 299 303 305 304 301 289 169 153 156 269 293 298 296 292 288 284 276 273 273 273 274 273 273 273 272 269 267 266 267 270 274 277 281 284 287 289 291 292 293 293 293 293 293 293 292 290 289 287 286 285 285 285 286 286 286 286 285 284 284 283 282 281 281 280
232 247 261 268 276 284 297 293 289 290 295 298 298 298 294 298 299 298 295 296 297 297 298 298 295 295 296 292 279 156 141 303 304 300 294 290 287 284 274 264 262 265 268 269 269 268 267 266 266 267 270 272 274 276 278 281 284 286 289 290 292 293 293 293 293 293 293 291 290 289 287 287 286 286 286 286 286 286 285 285 284 283 283 282 281 281
244 249 260 269 281 291 294 294 298 304 308 312 315 312 303 297 291 287 285 287 289 290 291 290 288 287 287 287 301 321 322 309 301 294 289 287 287 285 279 261 257 259 263 265 266 267 266 266 266 267 269 270 271 273 275 278 282 284 287 289 291 292 293 293 293 293 292 292 291 289 288 288 287 287 287 287 287 286 286 285 285 284 284 283 283 282
272 271 273 286 293 295 289 293 306 320 326 326 320 311 303 300 295 291 287 287 285 284 284 284 284 283 283 285 292 301 310 304 297 291 288 288 289 290 289 277 271 269 269 268 269 270 271 271 270 269 267 268 269 272 274 278 281 284 287 289 290 292 293 293 293 293 292 291 290 289 289 288 288 288 288 288 287 287 287 287 286 286 286 285 284 283
278 277 278 293 297 296 297 310 322 326 327 320 310 299 295 295 293 289 288 289 288 286 285 282 282 283 288 290 295 302 310 305 300 296 294 291 289 288 290 283 281 280 281 282 283 282 281 280 279 278 276 276 277 278 279 281 283 285 287 288 290 291 292 293 293 292 292 291 290 289 289 289 288 288 288 288 288 287 287 287 287 287 287 286 285 284
284 287 296 298 296 294 298 306 313 315 315 306 297 291 290 289 288 288 290 292 292 291 289 287 288 291 294 294 295 298 301 296 293 292 293 290 287 287 290 287 286 286 287 290 290 289 287 286 286 287 289 287 286 286 284 283 283 284 286 287 289 290 292 292 292 292 292 291 291 290 290 289 289 288 288 288 288 287 287 287 287 286 286 285 285 284
281 286 295 296 295 294 296 299 302 304 302 292 284 279 280 283 287 290 294 295 294 293 291 289 290 289 288 286 285 285 283 279 279 281 284 283 285 289 295 294 291 289 288 292 294 293 290 290 290 291 291 289 288 286 284 282 282 283 284 286 288 290 291 292 292 292 292 292 292 292 291 291 290 289 288 287 287 287 287 286 285 285 284 284 283 282
278 282 289 291 293 294 292 290 290 290 287 279 275 272 272 271 273 276 281 283 284 285 285 285 284 281 277 275 275 275 272 269 270 273 276 281 286 293 300 298 294 290 289 293 296 296 293 290 289 289 289 287 286 284 283 281 280 281 283 285 287 289 290 291 292 293 293 294 295 295 295 293 292 290 288 287 286 286 285 285 284 284 283 282 281 281
286 283 283 287 288 288 286 285 284 285 284 280 274 269 265 262 260 262 266 269 272 274 276 278 278 277 276 275 276 276 277 274 273 274 278 283 286 289 295 297 294 291 291 295 296 295 291 288 287 287 286 285 285 284 283 282 281 281 282 284 286 288 290 291 292 293 295 296 297 298 297 296 294 291 288 286 285 284 284 284 283 283 283 282 281 280
295 294 294 294 292 289 287 284 283 283 283 283 283 283 282 278 275 272 271 271 272 275 277 279 280 282 286 287 287 288 292 290 281 275 276 282 285 288 292 294 292 290 291 293 292 290 288 288 288 289 288 287 287 286 286 285 284 282 282 283 284 286 288 290 292 294 295 297 298 299 299 297 294 291 288 286 284 284 283 283 283 283 283 283 282 280
288 289 291 291 290 289 288 286 285 284 284 284 286 291 296 295 291 285 281 281 283 285 286 287 289 291 292 289 289 292 298 294 283 273 273 278 281 284 290 291 289 289 291 291 290 289 289 289 290 290 288 287 287 288 287 287 286 284 283 282 283 284 286 289 291 293 295 297 297 298 297 295 293 290 287 285 284 284 284 284 284 284 284 284 283 281
275 276 277 279 280 282 283 284 284 285 285 285 288 290 293 291 286 283 281 287 290 291 288 289 291 292 292 290 291 293 295 290 285 280 278 276 276 280 290 291 290 291 294 294 292 290 287 287 287 287 286 286 287 288 288 290 289 288 287 285 283 283 285 287 290 292 294 295 296 296 295 293 291 289 286 285 284 283 283 284 284 285 285 284 282 281
264 264 265 267 269 272 275 277 279 282 285 288 290 291 289 284 280 280 283 289 291 288 285 285 286 287 289 291 291 291 287 283 281 281 281 277 277 281 294 292 292 295 300 299 295 289 282 282 284 286 287 289 290 291 293 295 295 294 292 288 286 285 285 286 288 290 291 292 293 293 292 291 290 288 286 284 283 282 282 283 283 284 284 283 281 281
267 264 262 262 263 265 269 274 278 282 285 286 287 286 282 277 275 277 283 287 286 284 283 283 283 284 287 290 290 286 278 275 280 290 295 287 285 288 298 293 295 299 307 304 300 293 285 283 285 289 292 294 296 297 299 298 295 293 291 288 286 284 284 285 286 287 288 289 289 289 288 288 287 286 285 284 282 281 281 281 281 282 283 282 281 282
287 284 282 279 277 276 279 282 283 283 283 282 280 278 274 272 273 276 281 282 281 280 280 281 281 281 283 285 285 283 279 285 311 327 322 299 290 292 300 295 295 298 306 304 301 298 297 293 291 293 298 300 300 299 296 293 290 287 285 285 284 283 283 284 284 285 285 285 285 285 285 285 285 284 284 282 281 281 280 280 280 280 280 281 281 282
296 295 295 294 292 291 287 285 283 282 280 279 276 273 272 272 273 274 276 276 276 275 276 277 277 277 276 275 275 276 281 292 310 318 314 299 291 292 298 294 294 295 298 292 289 291 295 297 299 300 300 298 295 292 288 285 284 284 285 285 285 284 284 284 284 284 284 284 283 283 284 284 284 284 283 282 281 280 279 279 278 278 278 279 280 282
297 296 295 294 291 288 285 283 282 282 282 281 280 278 275 273 272 272 272 272 271 271 272 273 275 275 275 273 271 272 276 284 296 302 301 294 291 291 294 291 290 292 294 287 282 281 284 289 294 296 292 289 286 285 283 283 284 285 288 288 287 286 286 286 285 285 286 286 286 286 286 286 286 285 284 282 281 280 279 278 277 276 275 277 278 280
296 294 293 292 290 289 287 287 286 284 282 281 279 278 276 275 272 271 270 269 269 268 268 270 273 275 276 276 275 274 275 280 288 294 295 292 291 292 293 290 292 295 297 291 286 283 280 283 286 290 290 287 285 285 288 289 288 287 286 286 285 285 286 287 287 288 289 289 289 288 288 287 286 285 284 282 281 279 278 277 276 275 274 275 276 278
294 292 290 288 286 285 283 282 281 280 280 281 281 279 278 276 274 272 271 271 270 270 270 270 272 273 275 277 278 278 279 283 290 294 295 294 295 295 293 289 292 295 294 289 287 286 284 283 285 288 293 292 290 286 286 288 288 285 282 280 281 283 286 289 290 291 291 290 288 286 286 286 286 285 284 282 281 279 278 277 276 275 274 273 274 275
293 290 287 285 283 282 280 281 282 283 284 283 283 281 279 277 275 275 274 274 274 274 273 273 272 272 272 273 275 278 281 285 289 292 292 292 292 290 288 285 287 289 288 286 285 285 286 286 286 287 288 289 290 288 285 285 285 285 283 283 285 287 290 293 295 295 293 291 289 287 286 285 284 284 283 282 281 279 277 276 275 274 273 271 270 270
289 287 285 285 286 287 289 291 292 291 289 286 283 281 280 278 277 277 276 275 275 274 274 273 271 270 268 269 271 274 279 283 285 286 286 286 285 284 282 282 282 282 281 283 284 284 283 285 286 286 283 282 285 289 292 290 289 287 288 291 292 293 293 296 297 296 294 291 289 287 285 284 283 283 284 283 282 279 277 274 272 271 270 269 268 267
282 283 285 288 292 295 297 297 294 290 286 285 285 284 284 283 282 281 280 277 274 273 272 271 270 269 268 268 269 271 274 277 278 279 280 279 279 278 278 280 279 277 275 278 280 282 281 282 284 285 284 281 282 285 291 294 293 292 291 292 292 292 293 295 295 292 289 288 286 284 282 281 281 282 284 284 283 281 277 274 272 271 270 270 268 266
284 286 287 289 290 289 288 285 283 282 282 284 285 286 286 285 283 281 279 277 275 273 271 271 271 271 268 268 269 269 270 271 272 273 273 271 270 271 274 277 277 277 274 274 275 277 278 277 279 281 285 286 286 286 288 289 290 291 293 292 289 287 289 291 289 287 285 285 284 282 280 278 278 279 281 281 280 278 277 278 277 277 277 277 275 271
285 286 285 283 281 277 275 277 279 282 284 285 285 285 285 284 282 280 277 276 275 275 274 273 273 272 271 270 270 269 269 269 268 267 267 262 259 261 267 272 275 276 276 273 271 271 272 273 274 276 278 283 286 288 288 286 287 290 294 293 290 287 288 287 287 286 286 285 284 283 282 280 278 277 277 278 277 276 276 278 280 280 280 281 282 281
286 285 284 281 279 278 278 280 282 284 284 285 285 284 283 282 282 280 279 278 278 278 278 277 275 274 272 270 270 270 269 267 265 263 262 255 251 253 259 265 270 273 274 271 267 265 266 270 273 274 275 278 282 284 284 283 285 287 288 286 285 285 286 284 284 285 284 282 280 281 283 282 279 277 277 277 276 276 276 278 280 281 282 279 277 278
284 283 281 283 285 288 289 289 288 286 285 284 282 280 280 280 281 282 284 284 283 282 281 281 280 279 277 274 272 271 271 269 266 262 258 250 246 246 251 257 261 265 268 269 268 266 265 268 271 273 275 276 278 279 280 281 281 280 279 279 282 284 283 278 277 278 278 278 278 280 281 281 279 278 278 278 279 280 282 283 283 283 283 279 274 271
280 281 284 288 290 291 291 289 287 284 281 279 277 276 276 276 278 280 281 281 280 280 280 279 280 280 281 281 279 277 274 271 269 267 262 253 246 244 247 251 255 259 264 269 272 272 269 266 267 269 272 272 272 272 276 279 278 277 273 275 278 281 281 277 276 276 276 277 278 279 279 278 277 278 279 280 283 285 286 286 284 281 278 275 271 268
285 286 288 288 288 287 285 282 279 276 275 274 274 273 273 273 274 274 275 275 276 277 278 278 279 279 278 279 280 280 278 275 271 268 265 257 250 244 245 249 253 257 261 266 270 273 273 268 265 266 268 268 268 268 270 273 274 274 273 274 274 273 273 277 279 279 276 277 278 279 278 276 275 276 277 278 280 282 284 284 283 279 274 271 268 267
286 285 284 282 280 278 275 275 275 275 274 274 274 273 273 272 272 271 271 273 274 274 275 278 279 278 276 277 279 281 281 280 277 273 268 262 254 247 244 247 252 255 258 259 262 266 270 270 269 268 267 265 265 265 268 270 272 272 272 272 271 269 268 272 275 277 279 280 282 282 282 279 276 274 275 275 277 279 281 283 282 280 275 270 267 265
277 277 278 277 276 275 274 275 275 275 274 272 271 271 272 271 270 269 269 270 272 273 273 274 274 275 275 278 280 282 282 282 280 278 275 271 264 256 250 250 252 254 255 255 256 257 260 264 268 270 269 266 264 264 265 269 271 272 272 270 270 270 270 271 272 274 277 280 282 284 285 283 279 276 276 277 279 280 281 281 280 278 276 271 267 265
273 274 274 273 273 273 273 274 274 273 271 270 269 270 270 270 270 268 267 267 269 271 272 270 269 269 272 276 278 280 282 283 283 282 281 280 278 275 270 263 258 254 253 252 253 253 255 257 260 263 266 268 267 266 266 267 269 270 271 270 270 270 271 271 272 273 276 278 281 285 288 287 283 280 280 282 283 283 283 281 279 277 274 271 267 264
272 272 272 273 273 272 273 273 273 273 272 272 272 272 272 272 271 270 268 267 267 268 270 268 267 268 270 273 274 276 279 281 283 283 283 282 281 278 276 272 266 260 255 253 252 252 253 252 252 253 256 260 265 267 268 268 267 267 269 269 268 268 269 270 272 274 276 277 280 283 287 284 283 283 286 287 287 286 285 284 282 279 274 270 265 263
273 275 277 278 277 277 276 275 274 273 273 273 274 274 272 271 270 269 268 267 266 267 268 269 269 270 271 272 273 274 276 277 279 280 281 281 281 279 276 274 271 268 264 259 256 254 253 251 247 244 244 248 254 260 264 264 264 265 265 265 265 266 269 271 274 276 278 279 279 278 275 275 278 283 287 288 287 286 287 286 285 282 278 273 268 264
279 280 280 279 277 275 274 273 271 271 270 271 272 272 272 270 268 266 265 265 265 265 266 267 269 270 271 272 273 274 275 277 278 278 278 278 278 277 275 273 272 272 271 267 263 261 260 256 249 243 238 238 241 247 255 258 260 261 263 263 264 265 268 272 274 277 278 280 280 280 275 275 277 279 281 282 282 283 284 283 282 281 279 277 273 270
276 274 272 270 268 268 269 269 270 270 271 272 273 274 274 273 271 269 266 264 263 263 262 263 265 267 269 271 272 273 274 275 275 275 275 274 274 272 271 270 269 270 270 269 268 267 267 267 263 254 242 235 233 234 241 248 253 258 261 261 263 264 267 271 274 276 279 280 282 282 280 277 275 275 273 275 278 279 280 280 279 279 280 280 279 277